星链-31413 (STARLINK-31413 )

导读 | 星芒AI

STARLINK-31413 是 SpaceX Starlink 项目中的一颗低轨通信卫星,属于其第二代星链卫星群。该卫星于2023年发射,旨在为全球提供高速、低延迟的互联网服务。它运行在约550公里高的近地轨道,配备先进通信设备和激光链路,以提升网络效率和覆盖范围。作为 Starlink 计划的一部分,该卫星支持偏远地区的宽带接入,并增强整体星座的冗余与稳定性。

基本信息
目录编号:
59353
目录名称:
STARLINK-31413
国际标识:
2024-060F
轨道中心:
EARTH
卫星名称:
星链-31413
卫星全名:
星链-31413 (STARLINK-31413 )
卫星状态:
在轨 (已飞行580 天)
发射日期:
2024-03-31 UTC
国别 :
美国 (US)
星等 :
--
轨道信息
数据来源 国际轨道数据
星历时间: 2025-10-31T22:30:17+0800
13小时前
查看轨道信息
半长轴: 6861.2km
偏心率: 0.0001477
轨道倾角: 42.997°
近地点辐角 282.391°
升交点赤经 268.627°
平近点角 77.677°
近地点: 482.051km
远地点: 484.079km
周期: 94.267分钟
每日圈数: 15.275756
详细信息
固有亮度:
5
最大亮度:
0.3
卫星平台:
Starlink v2.0 mini
覆盖范围:
全球
运营商:
太空探索技术公司
运营商所在国:
美国
制造商(研发单位):
太空探索技术公司
制造商所在国:
美国
使用方式:
暂无
卫星简介
星链(Starlink)计划是由太空探索技术公司(SpaceX)提出的一个巨型低轨卫星互联网星座项目,计划在2019年至2024年间在太空搭建由约1.2万颗卫星组成的“星链”网络,其中1584颗将部署在地球上空550千米处的近地轨道,并从2020年开始工作。该卫星仍在工作。
2D轨道图
3D轨道图
轨道高度分析图
轨道倾角分析图
轨道综合分析图
查看轨道综合分析图